Wind_Speed
9 9 9 9 9 9 10 10 11 12 13 13 14 15 15 15 14 14 14 14 14 15 15 15 14 14 14 16 18 18 20 20 20 16 15 15 13 10 5 9 9 10 13 13 12 12 13 13 13 13 11 9 7 7 9 9 6 6 5 6 7 7 7 4 7 6 4 8 7 5 5 3 3 4 4 4 8 8 3 7 17 15 12 11 16 20 21 22
9 9 9 9 9 9 10 11 12 12 13 13 14 14 15 15 15 14 15 15 15 15 14 14 14 14 15 16 18 17 20 21 20 19 20 17 15 15 13 11 10 10 15 14 14 15 12 10 11 12 9 7 7 8 9 8 7 6 6 6 8 8 4 7 7 5 6 6 5 3 2 1 3 5 4 8 7 6 4 11 17 12 10 9 15 17 18 20
9 9 9 9 10 10 10 11 11 12 13 13 14 15 15 15 15 15 15 15 15 14 14 14 13 14 15 16 17 15 18 20 16 15 16 17 14 13 13 13 12 12 17 16 14 14 12 10 11 11 9 7 7 9 9 7 6 7 7 6 9 6 6 6 4 5 6 5 5 4 3 2 6 5 3 8 9 9 6 12 14 10 11 9 11 12 14 18
10 10 9 10 10 10 10 11 11 13 14 14 14 15 15 15 15 16 15 15 15 15 14 14 13 13 14 16 15 14 15 15 8 1 9 14 12 10 11 11 12 15 18 16 11 12 14 11 10 10 8 8 7 9 8 7 6 7 7 9 10 5 7 3 3 6 6 6 7 6 5 5 8 5 4 9 9 9 2 13 15 13 14 13 11 9 12 15
10 10 10 10 10 10 10 10 11 13 14 14 15 15 15 15 15 16 16 15 15 15 14 14 14 13 14 16 13 12 12 6 2 8 12 12 8 7 9 11 14 16 16 15 12 12 14 12 9 9 8 7 8 8 8 9 7 6 8 11 14 9 8 3 4 4 4 6 8 8 8 7 6 5 7 10 10 5 10 14 14 16 16 16 14 11 12 12
11 10 10 10 10 11 11 11 11 12 14 14 15 15 15 15 16 16 16 16 15 15 14 14 14 13 15 14 11 9 7 2 3 8 10 7 3 4 7 12 15 15 14 13 12 12 13 12 9 8 7 8 10 9 8 10 9 8 8 10 13 10 9 4 2 2 3 5 8 8 8 7 6 7 9 9 11 4 15 17 13 14 15 16 15 13 12 12
11 11 11 11 10 11 11 11 11 12 14 14 15 15 15 16 16 16 16 16 16 15 14 13 14 13 14 14 10 7 7 9 5 7 8 4 1 2 7 13 16 15 12 13 12 11 11 11 10 9 8 8 10 11 10 11 10 9 8 10 12 9 9 8 5 2 3 7 7 7 8 8 8 8 9 7 10 7 12 17 13 13 14 15 14 13 13 13
11 11 11 11 11 11 11 11 11 12 13 14 15 15 15 16 16 16 16 16 16 15 14 13 13 11 12 13 8 7 9 10 5 8 6 5 2 3 11 13 16 14 11 13 12 11 10 11 12 9 9 10 9 10 10 9 10 11 11 11 11 8 7 8 7 5 7 8 6 8 9 10 10 9 11 6 9 10 7 15 15 14 13 14 13 13 12 11
11 12 12 11 11 11 12 11 11 12 13 14 15 16 16 16 16 16 16 16 16 16 14 12 11 9 9 8 7 6 3 5 9 6 5 8 5 9 13 12 15 14 11 13 13 11 9 9 12 11 10 10 9 9 8 8 7 9 12 11 10 10 9 7 8 8 9 7 7 10 10 11 10 9 11 9 14 12 5 10 13 14 13 12 11 12 11 11
11 12 12 12 12 12 12 12 12 12 13 14 15 16 16 15 16 16 16 17 16 16 14 11 10 8 8 8 8 6 2 9 8 5 8 11 11 13 13 12 16 15 12 12 13 12 10 10 11 10 10 10 10 8 7 9 5 4 8 10 11 11 10 9 9 9 8 7 9 11 11 10 10 9 8 10 16 11 3 6 8 9 10 10 8 9 9 9
12 12 13 12 12 12 13 12 12 13 13 14 16 16 17 16 16 16 17 17 17 16 14 11 9 8 10 9 7 5 3 6 7 9 11 13 15 15 14 13 15 15 12 11 11 12 12 12 8 5 6 6 8 8 8 11 9 7 8 9 10 11 11 11 11 9 7 7 10 10 11 11 10 10 9 12 15 9 5 5 6 6 9 8 5 7 7 7
12 13 13 12 12 12 13 13 13 13 14 15 16 17 17 17 17 17 17 17 17 15 13 10 6 6 10 8 11 11 3 3 6 9 12 14 15 14 13 13 14 14 12 10 10 11 13 11 8 8 5 3 7 7 6 10 11 10 9 8 11 12 12 13 13 12 9 8 10 9 9 11 11 12 12 15 16 10 9 6 5 9 11 7 6 6 6 7
12 13 13 13 13 13 13 13 13 14 15 16 16 17 17 17 17 17 18 16 14 12 12 8 4 7 9 6 11 14 7 5 7 8 12 13 13 13 12 12 13 13 11 9 7 8 11 8 7 10 8 6 7 4 4 7 9 10 10 8 9 10 11 14 14 13 12 10 8 5 5 8 12 16 15 15 17 10 9 8 8 12 9 8 7 7 7 8
13 13 14 13 13 13 14 14 14 14 15 17 17 17 18 18 17 17 16 13 10 10 11 7 6 7 7 8 10 8 6 5 7 10 13 14 14 13 12 12 11 11 9 9 7 4 7 7 8 9 9 10 9 6 5 7 6 8 9 8 7 7 9 14 15 13 12 10 7 4 5 8 12 15 17 15 18 11 9 9 13 16 11 7 7 7 7 8
13 14 14 14 14 14 14 14 15 15 16 17 18 18 18 18 17 13 10 8 8 8 7 6 9 7 5 10 11 8 9 7 9 12 13 16 15 12 11 12 11 10 8 9 7 4 6 7 8 8 7 11 11 8 7 7 6 7 7 7 7 7 9 10 13 14 10 8 9 7 7 8 13 14 16 19 17 11 8 8 12 17 13 9 8 7 7 5
13 14 15 15 14 14 15 15 15 16 17 17 18 18 16 15 13 8 7 5 4 4 4 5 11 11 5 5 3 9 11 11 12 13 14 17 15 12 12 11 10 10 9 9 7 6 7 8 7 8 8 9 9 8 7 6 7 7 7 7 8 9 7 4 13 14 12 8 10 11 8 8 11 11 7 14 10 9 7 10 9 17 15 12 11 8 5 3
13 14 15 15 15 15 15 15 16 17 17 17 18 17 12 11 8 5 5 2 1 4 8 8 9 11 7 5 2 8 13 13 13 15 16 17 15 13 14 10 10 10 9 10 8 7 8 7 6 7 8 8 8 8 7 8 7 7 7 7 8 11 9 5 11 14 14 9 8 11 8 10 14 8 4 10 6 6 9 10 9 12 15 11 9 9 7 6
14 14 15 16 16 16 16 16 17 17 17 18 17 14 11 11 7 6 5 3 3 5 10 12 9 6 8 11 11 11 14 14 14 17 16 16 16 14 12 10 9 9 9 8 9 9 7 7 6 6 7 7 8 8 7 9 8 8 9 7 8 10 11 7 8 12 12 9 7 10 9 11 16 8 4 8 9 9 10 10 12 10 11 9 8 7 7 8
14 15 15 16 16 16 16 16 17 17 17 18 15 12 10 7 4 7 8 7 6 5 5 6 10 5 3 9 13 7 10 13 13 16 17 16 15 13 11 10 9 10 9 7 8 10 7 6 7 7 7 8 10 10 10 12 13 13 9 8 9 8 10 11 5 11 10 8 7 9 8 9 12 11 7 7 10 11 11 9 10 9 10 10 9 5 4 6
15 15 16 16 16 16 16 17 17 17 17 17 16 12 6 4 3 4 7 10 11 10 8 6 16 11 4 7 11 6 10 11 10 13 17 16 14 13 11 10 10 9 9 8 9 9 8 6 8 8 9 11 13 14 14 15 17 14 11 8 10 8 9 11 7 13 9 5 6 6 8 9 10 11 12 10 8 11 12 10 9 11 11 11 12 12 11 9
15 15 16 17 16 17 17 17 17 16 15 16 15 9 5 4 4 1 3 9 16 20 18 11 15 15 8 4 8 10 9 8 9 12 16 17 14 12 10 10 11 8 10 12 8 8 8 8 8 11 13 13 14 15 14 16 18 12 8 8 10 8 7 8 7 12 9 4 5 6 9 11 11 11 13 11 11 12 10 10 9 12 11 10 12 16 15 11
15 15 16 17 17 17 17 17 16 15 14 13 10 9 7 7 6 4 4 7 13 19 20 16 14 14 10 7 5 8 8 9 10 12 15 16 14 12 10 12 11 9 10 12 8 7 8 8 12 15 13 13 14 12 9 13 16 8 5 8 9 7 5 8 8 7 7 4 4 6 9 12 13 13 13 12 11 11 13 10 10 11 12 9 11 13 14 13
15 15 17 16 17 18 17 18 16 15 15 11 10 12 10 8 6 7 7 7 10 13 17 16 14 12 11 10 8 8 8 10 11 13 17 15 13 12 11 12 11 11 11 11 10 7 6 11 17 16 13 15 13 8 5 7 8 5 5 8 8 9 8 7 9 10 9 5 1 5 9 10 11 12 10 10 10 11 15 15 12 12 11 11 12 12 11 13
15 15 16 16 17 17 17 19 17 14 14 13 16 17 11 8 7 9 7 6 8 8 14 14 12 12 12 10 11 13 11 9 10 13 18 15 12 11 11 12 12 11 10 13 14 11 11 12 12 15 16 15 10 6 7 6 5 7 8 9 10 11 12 10 10 11 9 4 3 3 8 7 9 12 11 10 11 13 14 16 13 13 12 12 13 12 11 10
15 15 16 16 17 17 18 18 13 10 9 12 17 18 10 6 5 7 6 5 6 6 10 11 9 8 9 8 9 12 11 10 11 11 18 16 13 11 10 9 9 11 12 15 14 11 13 12 6 9 9 7 6 7 9 8 6 8 10 12 13 14 14 14 13 11 8 7 6 7 7 6 9 14 15 12 13 16 15 15 16 12 13 12 11 10 10 8
15 15 16 16 16 18 15 9 7 7 7 11 10 6 5 4 4 6 5 4 5 6 9 9 8 6 8 9 8 9 10 10 12 11 16 17 15 11 9 7 7 10 12 13 11 6 9 14 10 8 6 5 7 9 10 10 8 7 9 12 14 15 15 15 15 11 7 7 6 8 8 6 7 10 11 12 14 16 14 15 16 12 11 12 11 11 10 10
14 15 16 15 15 15 10 6 9 10 6 5 1 1 2 3 4 5 4 4 4 6 9 7 6 8 9 9 11 9 5 6 12 14 14 17 14 12 9 9 8 9 10 8 7 6 9 14 10 8 10 10 8 8 10 12 9 6 9 12 14 14 13 13 13 10 7 7 8 11 10 7 8 7 9 13 13 11 9 11 13 11 10 6 4 5 2 3
15 15 16 16 15 11 9 12 14 10 5 6 3 2 3 4 5 4 4 4 3 6 7 6 5 7 8 9 13 10 1 4 11 12 14 17 15 11 10 12 10 10 11 9 7 8 10 11 8 8 8 8 8 10 11 12 10 8 11 14 10 7 8 9 10 9 8 8 8 11 10 8 8 7 9 13 14 11 10 9 5 3 4 4 8 8 8 10
15 15 15 17 15 9 10 13 13 11 8 8 5 4 5 5 4 4 4 3 4 4 4 5 5 7 8 8 13 12 4 5 6 9 14 15 14 12 9 12 13 11 13 12 10 8 7 8 10 9 8 8 9 11 12 12 9 9 13 12 5 3 7 9 8 8 7 8 9 10 11 9 7 7 7 8 9 8 7 3 5 7 6 8 10 9 8 9
15 15 15 16 13 7 6 12 15 12 9 8 7 6 6 5 4 4 4 2 4 6 5 5 6 10 11 10 11 12 10 8 4 8 12 10 13 13 9 9 12 12 11 13 12 10 6 6 8 9 8 8 11 11 11 9 7 8 10 8 5 5 7 8 6 7 6 7 10 12 13 11 7 6 4 3 0 4 4 6 9 9 9 9 8 8 8 9
15 15 14 14 11 9 8 9 9 6 6 7 7 6 5 4 4 5 4 2 4 7 8 7 8 11 13 12 10 11 12 10 7 9 9 8 11 11 8 8 8 8 8 9 11 12 11 8 5 7 6 5 10 10 10 10 9 9 7 5 5 5 6 7 7 7 7 8 10 13 15 12 9 7 4 5 7 10 7 7 8 7 8 9 8 8 9 8
17 17 15 15 14 13 13 8 3 7 4 4 4 4 4 3 5 6 4 3 3 6 7 9 10 11 14 14 11 13 12 9 10 10 9 9 9 10 10 8 6 6 8 7 9 10 11 11 9 9 7 9 11 8 9 12 10 8 7 6 6 6 6 7 6 6 7 8 9 12 13 10 7 4 2 3 8 13 10 8 8 8 9 9 9 8 8 7
18 18 18 17 15 18 21 14 8 10 6 5 4 5 4 4 6 7 5 4 4 4 5 8 10 10 12 12 10 13 12 9 12 11 11 11 9 10 13 13 10 9 7 7 8 9 8 11 13 13 10 10 12 8 7 8 7 8 8 7 7 6 6 6 6 6 7 7 9 10 8 7 6 3 10 9 10 13 13 11 11 12 11 10 11 11 9 6
20 20 20 18 18 21 20 14 11 10 6 5 5 4 5 5 5 6 7 5 5 5 2 4 6 6 9 9 9 11 9 9 12 12 10 11 9 8 11 14 15 12 7 7 7 8 8 8 11 12 8 10 12 12 10 8 7 9 9 8 8 6 6 6 5 5 5 4 7 7 5 5 5 1 7 10 12 12 11 10 10 10 8 8 10 11 11 9
20 18 17 17 18 20 18 14 12 9 6 5 5 5 6 6 5 7 5 2 5 4 5 5 4 7 8 8 9 9 7 7 12 13 10 9 9 8 9 12 15 14 9 7 5 6 10 8 8 12 9 10 13 12 12 11 8 7 8 9 8 7 7 5 4 5 3 3 5 5 3 2 2 4 6 10 13 11 8 8 8 8 6 6 8 10 9 9
18 12 10 13 15 13 13 14 12 9 7 5 5 6 6 6 4 1 3 4 3 2 4 6 7 8 7 6 7 8 6 5 9 10 9 10 10 10 10 10 13 15 11 7 5 5 8 7 9 12 12 11 12 11 12 11 6 4 6 8 8 9 9 5 5 6 4 4 5 4 3 1 4 4 9 12 10 9 9 8 8 7 6 6 6 7 7 8
15 11 9 14 15 11 13 14 12 10 7 5 6 6 6 7 2 4 5 5 2 1 2 3 6 6 7 8 7 8 9 6 6 6 6 9 10 9 11 10 13 17 15 10 6 5 6 5 8 12 12 12 12 11 13 12 9 6 5 6 7 9 9 5 5 6 6 7 5 5 8 5 3 1 6 9 7 8 8 7 7 6 5 5 3 2 1 3
13 11 10 11 11 11 14 14 13 10 5 5 6 7 8 5 2 5 5 5 3 1 5 6 4 5 8 6 6 9 10 7 6 6 5 7 4 2 4 7 9 13 15 13 7 3 5 4 7 13 11 9 10 11 11 12 13 11 7 6 6 6 6 5 4 5 6 6 4 7 10 3 4 2 4 6 6 7 5 5 6 6 6 5 5 5 4 4
10 7 5 7 10 11 14 15 12 8 5 6 6 6 8 5 2 3 4 4 4 3 5 7 2 3 7 6 3 7 8 6 7 6 6 6 3 5 8 3 3 6 5 9 7 3 3 3 5 10 9 6 7 8 7 8 11 12 10 8 6 5 4 3 3 4 6 6 5 7 7 1 6 4 4 6 6 5 4 5 7 7 7 7 7 8 9 9
8 4 3 9 11 11 14 14 9 6 5 7 6 5 6 4 3 3 3 4 4 3 5 6 2 3 5 7 6 1 2 5 5 6 4 1 1 2 5 5 6 10 13 10 8 2 2 4 4 6 6 5 5 7 8 8 8 9 8 8 8 5 4 5 4 4 6 5 4 6 4 3 4 5 6 6 6 7 6 6 6 6 7 9 10 9 9 10
6 3 3 10 11 13 14 9 6 6 6 7 9 6 2 1 2 5 1 4 4 4 4 7 4 2 4 7 5 3 2 5 4 5 4 1 3 1 3 8 7 5 9 9 4 4 3 2 4 4 4 5 6 7 8 7 6 6 7 8 8 7 6 7 6 6 7 6 5 5 1 4 3 3 5 7 8 10 10 7 6 7 9 10 10 10 10 10
5 3 4 10 13 13 11 6 5 6 6 5 6 1 5 2 2 2 3 4 4 4 2 5 6 4 5 5 3 4 4 5 5 3 3 6 4 3 5 9 8 3 4 4 2 6 5 2 3 5 5 6 8 7 4 8 11 10 7 4 4 5 4 5 6 5 5 5 5 3 2 4 2 3 5 4 8 10 11 10 8 8 10 10 11 11 11 12
4 3 4 11 14 12 8 5 5 7 6 2 2 3 5 3 4 1 2 6 4 3 2 2 3 2 4 3 4 5 2 3 7 1 6 8 5 2 3 5 7 4 3 2 0 3 3 2 4 6 4 5 9 8 6 8 9 7 5 7 7 7 7 4 5 5 3 3 2 1 2 3 1 2 7 7 8 9 9 9 9 8 8 9 11 11 12 12
2 2 3 10 13 8 4 4 5 6 5 3 3 2 1 3 3 2 3 5 4 2 3 3 2 1 4 1 3 7 1 1 6 1 7 5 1 2 1 3 3 2 3 3 1 1 2 2 5 6 3 3 6 6 5 6 6 3 3 6 8 9 10 5 4 5 3 4 3 2 1 2 1 0 7 11 10 8 8 8 8 8 7 7 9 10 11 11
0 1 4 9 11 7 2 4 5 4 5 4 4 5 3 2 1 3 4 1 2 1 0 3 1 1 4 3 3 7 4 1 3 1 4 4 3 2 1 2 2 4 3 1 1 0 1 1 2 3 3 3 4 4 2 2 4 4 3 5 7 10 10 5 2 3 3 6 5 1 3 3 3 3 9 11 9 8 8 8 8 8 8 8 8 9 9 10
1 2 4 7 8 6 4 6 7 4 5 4 3 6 7 4 3 2 4 2 1 2 2 3 3 2 4 6 3 4 6 5 5 3 2 3 3 3 2 2 4 6 4 3 2 2 1 1 1 1 5 4 0 1 2 2 3 6 6 4 6 7 8 6 1 2 3 4 5 2 6 7 5 5 10 9 9 8 7 8 8 8 8 8 8 9 9 10
0 2 5 6 6 6 5 7 7 2 4 6 3 4 5 3 2 3 1 1 0 2 2 2 3 2 2 4 3 4 8 7 8 6 4 2 3 3 1 1 5 8 5 4 3 2 2 3 2 3 6 6 1 2 3 6 6 7 8 5 6 8 9 8 5 5 4 1 2 2 4 6 5 8 9 9 9 7 7 8 8 8 9 8 9 10 11 11
2 3 5 5 4 5 5 6 5 4 4 6 2 2 3 4 3 5 2 2 2 2 2 2 4 4 4 4 2 1 7 9 5 3 1 2 1 2 2 4 2 6 6 5 2 0 3 3 1 2 5 5 3 2 1 6 9 6 3 3 7 9 10 8 7 6 4 1 1 2 4 6 6 8 9 9 8 7 7 8 8 9 10 10 11 11 12 13
2 3 2 2 2 3 4 4 5 6 3 2 3 3 3 4 4 5 3 2 2 1 1 2 5 6 3 3 2 1 2 4 5 6 6 6 6 3 2 3 3 3 4 3 3 3 4 1 0 4 5 3 3 0 1 7 8 2 8 11 10 9 10 9 8 8 6 5 5 6 9 9 6 6 7 7 7 7 8 8 9 11 11 11 12 12 12 13
1 1 0 1 2 1 4 4 4 5 3 2 2 3 3 4 4 4 4 2 3 2 4 2 4 6 2 0 1 1 1 2 2 4 5 4 4 3 1 1 2 6 8 4 2 2 4 1 2 4 5 3 2 2 2 5 1 9 11 13 11 10 10 9 9 10 7 5 2 6 10 8 5 7 8 7 8 9 9 10 11 11 11 11 11 12 12 12
6 8 6 2 2 3 3 4 3 4 4 2 1 2 2 5 5 4 1 2 2 1 3 1 1 6 4 2 1 1 3 2 1 2 3 2 3 3 1 2 4 1 4 4 1 2 2 2 1 1 4 4 3 3 5 4 10 13 11 12 11 9 9 9 9 9 8 7 5 1 6 5 4 7 8 9 10 11 11 11 10 9 10 11 11 12 12 12
9 10 7 2 2 2 2 4 4 3 3 3 4 3 0 1 3 4 2 4 5 2 3 6 6 4 2 1 1 3 4 1 3 5 5 5 5 5 3 3 4 3 3 3 1 2 1 2 2 1 2 4 3 3 6 7 6 6 7 9 9 7 8 9 10 11 10 8 4 2 4 5 6 7 8 9 10 11 11 11 9 8 10 11 12 12 12 12
Wind_Direction
334 335 334 334 333 334 333 330 328 326 324 322 320 319 318 319 318 317 317 316 318 317 315 315 314 317 321 322 320 323 331 322 309 293 254 246 248 255 244 208 232 241 200 188 198 196 200 215 221 221 224 226 221 234 239 223 227 242 232 243 250 245 249 309 25 16 18 63 56 43 42 328 331 346 334 312 243 229 215 93 75 66 51 69 118 135 145 147
331 332 333 332 331 332 331 330 328 325 322 319 317 316 316 315 316 315 314 314 311 311 311 311 313 318 322 322 322 330 333 315 293 281 261 248 245 251 256 242 244 220 187 192 206 200 201 208 210 213 218 226 212 219 233 207 203 235 237 235 242 251 294 5 23 4 14 40 24 25 56 4 316 326 331 305 288 248 220 101 87 86 82 90 123 139 149 147
329 329 329 329 330 331 330 330 327 324 320 317 316 314 314 313 313 312 310 310 308 310 311 311 315 318 324 322 324 339 332 309 288 272 247 231 231 239 250 244 233 206 187 196 205 203 213 211 202 210 218 228 220 213 217 193 190 224 238 243 237 260 350 360 357 6 7 360 344 331 25 19 281 308 333 304 309 278 245 122 113 117 121 119 129 148 155 152
326 325 326 326 327 328 328 329 327 323 319 316 315 312 312 311 309 309 308 307 308 311 311 314 319 319 325 321 325 344 327 301 288 222 173 195 218 233 242 233 213 198 193 210 227 219 225 226 207 211 225 231 222 215 216 194 191 213 221 245 248 291 348 341 15 12 355 336 326 306 322 305 288 337 324 290 287 282 286 127 135 136 138 140 148 159 161 162
323 321 323 323 323 326 326 328 326 323 320 316 314 311 310 309 307 307 305 305 306 308 311 313 317 320 321 318 329 337 313 291 86 109 139 173 213 242 237 213 194 192 197 221 248 236 229 236 219 213 232 244 229 215 222 217 216 230 228 249 263 294 319 354 42 1 350 322 302 285 279 293 320 328 285 283 284 311 81 112 130 139 147 148 155 161 166 170
319 319 319 320 321 323 323 326 326 324 320 316 313 311 308 308 306 306 304 304 304 304 306 308 315 319 316 317 324 312 281 282 71 124 146 170 225 267 221 192 183 186 200 224 245 237 226 233 229 219 227 241 241 226 220 222 223 242 241 249 263 275 277 291 4 352 5 298 285 284 282 304 317 290 275 272 279 314 102 117 125 137 148 147 151 156 168 179
317 316 315 318 319 319 323 324 326 323 319 316 313 310 307 306 305 304 303 301 301 300 299 302 311 315 318 324 311 261 238 278 293 147 155 173 239 263 186 176 176 182 202 225 236 231 219 224 226 221 225 233 243 235 225 227 225 236 250 251 257 262 261 272 291 319 303 276 276 280 286 291 277 271 269 259 277 291 107 117 124 134 143 143 149 158 172 184
314 314 313 315 316 318 320 321 325 322 317 315 311 309 307 305 304 303 302 300 299 298 295 296 304 314 326 333 311 248 238 251 199 143 165 185 181 166 163 165 174 183 208 226 231 226 215 220 224 221 226 230 239 237 227 233 232 231 246 257 262 272 269 271 278 276 265 261 267 267 265 264 258 264 271 278 277 267 111 113 130 133 143 146 152 163 173 182
312 311 310 313 315 316 317 319 323 319 316 313 309 307 305 303 303 301 299 298 297 295 292 291 298 313 324 317 295 282 259 164 141 139 170 174 174 163 161 166 179 192 215 226 229 225 215 217 223 225 234 245 260 256 230 227 232 230 240 248 256 263 258 253 253 252 254 252 255 256 253 253 249 253 262 264 259 255 108 124 141 137 151 151 154 166 171 180
310 309 309 312 314 314 315 317 319 317 314 310 307 305 302 302 300 299 297 294 293 291 290 292 298 309 304 281 265 273 108 121 130 140 156 161 160 162 172 179 183 200 220 222 225 223 222 223 222 231 248 266 278 275 241 230 240 250 249 252 258 264 262 258 253 248 252 254 254 256 259 258 248 243 243 242 246 243 149 169 168 158 162 145 150 166 172 183
308 308 308 311 313 314 314 315 317 315 311 307 305 303 301 301 298 298 296 292 290 288 290 291 294 299 287 274 261 259 127 139 149 145 156 159 156 167 184 185 185 206 223 220 222 225 232 240 249 256 254 264 263 259 246 244 257 265 264 269 267 267 267 262 259 253 248 252 253 253 260 259 249 242 240 245 243 216 175 200 194 161 131 129 155 162 175 191
306 307 308 310 313 314 313 314 314 311 309 305 303 301 301 300 298 297 294 293 292 289 289 287 280 280 280 273 251 245 236 190 174 159 167 164 164 178 188 187 192 211 228 225 218 228 241 254 272 260 262 294 256 255 250 244 253 260 265 272 264 260 256 248 246 241 233 239 244 240 251 250 242 238 237 251 250 203 169 195 169 123 115 139 169 167 193 199
306 308 309 310 313 313 312 312 312 310 307 304 302 301 298 298 297 295 294 292 293 286 282 276 249 259 270 274 249 237 233 212 182 171 174 174 178 185 193 195 199 216 239 248 232 229 239 256 276 263 273 275 252 300 325 247 243 252 253 255 263 262 249 237 230 225 225 230 227 220 253 250 239 230 223 244 250 204 174 191 137 120 141 171 174 179 195 200
307 309 309 311 313 313 312 311 311 309 305 302 301 300 298 298 297 297 295 289 295 290 273 251 228 248 246 260 267 229 203 197 180 186 184 183 185 184 195 198 203 223 240 259 273 266 246 255 266 267 274 260 263 320 310 249 239 250 249 239 245 256 257 240 213 202 216 214 186 183 258 265 263 238 206 225 241 202 181 197 144 133 158 174 180 191 190 208
308 311 310 311 313 313 312 310 310 307 305 301 298 299 299 301 302 301 298 287 296 288 262 229 220 234 248 258 258 198 191 212 199 196 188 188 188 181 191 195 205 226 227 240 262 267 253 254 251 253 255 248 263 286 262 243 234 235 244 241 231 235 261 242 183 179 208 193 169 201 253 255 273 263 202 207 228 190 176 214 159 140 155 168 177 197 193 207
310 311 311 312 312 313 311 310 310 307 305 302 299 301 302 307 309 300 291 283 287 249 199 206 210 215 267 281 202 174 197 218 211 198 189 194 193 182 186 191 204 218 218 226 239 242 236 240 244 246 248 242 241 248 248 247 233 220 226 241 241 229 245 215 157 172 201 182 174 209 251 252 265 286 195 180 193 168 187 237 188 145 157 174 171 182 185 183
311 311 311 313 312 312 312 310 310 307 307 305 304 306 308 310 302 279 286 264 231 207 200 241 228 204 255 285 185 202 207 208 206 196 192 195 197 191 181 184 204 208 210 216 224 234 224 220 233 237 242 243 231 228 236 241 233 217 217 235 255 248 251 216 162 182 201 187 190 205 226 264 270 293 97 128 149 192 214 237 229 170 163 172 162 168 175 180
312 312 311 312 312 312 311 311 310 308 310 308 307 313 310 305 285 258 268 192 180 222 225 260 259 214 251 243 226 225 204 195 196 194 193 192 202 204 182 185 205 197 205 215 213 222 214 205 222 225 225 231 230 225 220 232 238 224 212 212 238 253 264 255 167 173 191 181 215 226 214 254 270 267 147 149 175 222 239 236 240 206 157 146 156 179 187 179
312 311 312 312 312 311 310 312 309 309 312 310 315 323 309 302 273 239 238 206 184 211 223 213 206 228 327 209 214 215 172 176 187 191 192 190 200 211 195 194 203 197 208 212 195 206 208 199 216 224 223 218 222 228 228 235 240 243 247 230 233 240 249 258 184 155 172 170 205 243 232 241 265 268 250 213 188 202 226 235 244 216 159 146 158 183 216 187
311 311 312 311 311 311 311 311 307 309 314 314 323 323 289 263 250 210 205 214 215 235 263 189 190 233 318 171 187 139 132 165 185 188 190 187 191 205 203 199 204 203 215 215 191 193 203 210 216 218 225 222 218 225 236 248 249 264 299 291 269 261 235 241 197 165 184 197 196 239 259 255 262 268 268 262 237 220 211 213 246 235 191 169 168 180 202 195
311 311 311 310 310 310 309 309 306 307 310 311 314 301 269 308 325 2 191 225 224 232 254 240 203 226 254 207 173 150 151 182 195 191 183 182 189 197 194 198 207 201 216 228 206 187 204 222 226 222 226 229 227 224 226 249 258 270 301 289 276 272 251 251 211 165 166 194 211 244 266 263 259 259 263 267 264 260 238 203 222 249 228 194 190 195 196 177
311 310 310 309 309 308 309 308 304 304 306 301 284 253 266 334 354 331 303 268 242 228 235 241 226 226 241 258 195 170 195 197 196 196 175 174 190 193 181 192 211 205 209 226 217 194 205 228 233 229 231 234 235 234 224 243 258 266 271 260 264 269 271 270 246 187 163 184 223 254 267 263 255 247 247 249 247 260 267 233 202 238 247 220 220 222 202 169
310 310 310 309 309 310 308 305 301 298 290 271 249 243 268 321 339 315 296 283 275 236 219 223 225 223 222 231 211 198 225 208 199 193 172 175 194 199 192 190 210 217 205 214 219 205 206 226 227 222 230 238 233 231 248 266 266 257 249 249 250 258 264 266 253 234 218 204 187 281 282 273 266 263 254 249 246 248 261 254 216 216 243 233 230 244 221 176
310 310 309 309 309 309 308 306 299 285 267 246 245 253 275 314 315 319 306 266 276 240 214 211 215 219 213 216 202 199 220 225 218 189 167 182 203 201 209 199 205 223 213 212 217 217 234 239 222 212 220 229 224 206 225 255 263 243 243 249 250 251 252 252 258 259 251 224 151 242 279 272 261 264 259 251 249 245 248 258 242 211 224 238 230 239 237 199
309 309 308 310 311 311 312 308 290 266 242 234 246 250 263 300 294 319 320 261 253 213 197 196 204 208 186 181 186 197 213 223 234 198 164 187 212 196 210 211 204 223 218 217 220 220 244 257 225 213 218 202 210 219 218 226 248 246 233 234 249 259 260 260 265 270 263 239 192 202 248 260 243 241 244 243 239 237 231 240 249 230 215 229 234 232 239 235
309 309 309 310 312 316 318 305 286 287 251 235 245 242 246 283 303 314 302 256 244 182 165 176 185 162 154 169 176 195 219 216 227 214 169 185 217 211 211 210 198 226 225 220 226 213 237 254 239 217 217 187 211 232 222 218 233 251 237 223 230 247 257 264 270 274 264 256 250 244 255 271 260 247 251 255 243 235 223 217 230 241 230 222 231 231 226 235
308 306 308 309 313 323 320 301 307 310 279 234 223 53 267 286 317 310 273 248 237 169 151 158 176 169 169 178 175 188 232 190 195 216 191 178 206 226 225 216 198 221 237 230 227 212 220 241 233 211 229 225 223 237 225 217 225 242 246 237 227 231 245 254 260 269 271 274 274 267 267 269 268 269 274 281 274 255 243 230 215 221 242 236 252 268 259 305
305 305 308 306 307 307 286 293 303 293 314 21 22 300 307 317 305 287 251 236 184 151 150 134 130 169 173 169 183 199 286 137 172 203 198 178 192 219 225 230 225 212 225 236 232 220 214 221 204 191 229 239 228 237 227 217 227 240 248 256 252 240 258 267 260 255 253 257 260 257 256 255 255 256 257 270 278 264 244 248 230 208 278 18 31 11 24 29
304 306 305 306 306 289 261 272 279 270 298 343 334 304 322 313 284 253 254 242 153 145 146 130 135 174 176 169 195 211 207 199 202 181 181 182 195 219 232 238 247 235 220 229 245 236 207 217 226 211 216 238 237 240 235 222 221 240 256 270 274 230 256 270 267 262 255 248 252 250 249 258 262 253 249 252 274 276 229 198 45 40 28 31 26 16 17 20
304 302 303 309 306 303 283 256 255 265 285 299 304 313 304 286 259 224 219 200 182 171 139 147 176 181 185 186 195 209 209 217 220 160 172 187 198 219 249 249 254 258 226 214 235 249 217 200 241 245 224 229 238 237 239 235 226 242 261 272 255 222 245 258 257 262 264 250 251 250 248 255 262 263 263 220 145 22 59 76 47 29 25 20 14 15 6 6
301 297 300 301 285 301 311 255 250 278 266 275 302 299 275 249 241 229 181 160 204 164 142 166 181 175 188 202 193 189 206 208 169 163 181 188 194 207 235 244 240 256 247 215 216 239 243 219 215 256 268 257 248 240 231 221 215 233 247 251 248 229 222 235 234 232 241 249 255 254 250 246 249 268 259 178 116 75 61 57 51 30 14 2 358 5 358 18
296 293 292 284 272 275 266 240 342 347 301 298 307 262 251 215 226 237 178 161 196 168 179 186 174 178 190 207 206 179 193 201 169 182 198 186 198 200 206 225 205 209 240 228 206 213 236 238 216 215 235 244 247 244 229 216 205 222 233 221 238 244 224 226 227 222 232 244 250 254 257 249 248 301 7 124 90 73 68 54 37 25 17 359 357 3 360 37
294 294 287 276 265 258 250 247 299 319 313 310 278 236 244 226 219 228 199 172 137 133 205 183 162 188 195 204 214 178 183 200 174 187 205 189 202 205 202 219 215 206 222 227 220 207 216 236 223 206 197 213 236 244 229 216 198 216 233 221 222 235 233 227 226 238 246 252 263 273 276 256 244 20 50 65 59 56 60 52 26 18 17 359 357 3 354 3
297 292 283 273 259 252 249 249 267 285 290 271 246 218 233 241 222 223 219 184 122 100 179 171 150 196 211 225 226 184 186 208 180 183 201 193 203 208 202 216 223 222 227 238 236 217 222 236 224 220 197 181 213 240 244 233 211 211 225 233 230 232 245 244 233 244 254 269 289 296 291 260 237 51 51 62 61 50 47 49 41 31 18 355 358 6 357 337
301 291 279 269 257 246 238 235 241 257 262 239 234 223 218 238 226 216 234 146 121 152 174 170 197 212 212 234 237 207 196 207 193 188 198 202 205 208 202 208 220 223 220 229 231 218 234 241 229 236 230 194 202 225 248 254 239 210 211 227 233 235 247 259 254 259 272 280 275 269 282 327 101 107 58 60 69 71 69 58 52 48 32 14 9 11 9 341
307 295 265 246 246 237 218 218 220 225 236 225 229 227 213 239 241 191 317 18 79 202 169 163 213 227 210 210 228 216 180 189 218 202 193 206 203 205 210 200 205 217 224 227 211 208 233 242 237 230 222 221 218 208 226 247 251 230 218 225 236 240 244 251 253 256 253 245 246 230 240 236 130 97 52 58 70 82 95 90 74 67 55 41 24 15 8 337
310 296 261 234 232 218 198 198 196 200 224 235 229 235 237 238 211 57 358 355 38 329 292 209 204 217 221 200 197 199 169 162 236 231 206 213 205 205 220 209 197 205 219 236 237 228 237 244 250 239 215 215 229 221 219 227 237 248 239 237 244 244 246 248 246 246 237 238 236 218 229 226 170 120 44 59 64 58 68 82 83 77 65 57 51 59 65 296
304 296 277 240 212 189 182 181 185 193 216 244 237 253 270 270 66 43 356 345 339 256 258 256 205 204 237 221 183 187 171 154 196 221 235 217 200 332 271 227 213 206 206 219 232 245 256 252 249 250 230 202 219 234 228 220 226 236 244 245 243 237 239 239 244 248 242 243 246 233 238 279 34 53 83 77 70 56 45 54 63 52 40 39 34 28 26 16
285 288 270 206 168 163 169 170 180 199 216 232 234 239 257 271 71 44 1 329 297 279 254 261 255 234 254 259 225 182 173 180 183 198 240 214 176 340 328 311 302 310 270 234 229 205 218 236 245 247 235 197 208 230 237 225 218 227 239 240 236 243 248 241 237 249 250 247 251 245 231 93 31 18 67 82 88 89 75 51 38 26 18 19 25 18 9 12
254 259 195 163 153 153 160 164 183 209 212 224 243 222 220 237 134 97 0 290 270 288 279 278 264 221 251 263 273 281 178 226 204 186 214 217 61 309 326 352 340 336 334 300 268 260 189 207 244 249 229 212 214 216 232 242 224 219 232 236 237 241 244 242 230 233 254 254 253 256 234 98 36 6 30 42 55 65 64 59 41 23 16 14 18 19 13 12
234 248 176 159 156 149 154 171 195 208 212 227 252 240 163 7 99 125 163 277 275 277 296 310 305 288 284 261 264 339 292 242 229 205 190 83 7 305 23 358 335 335 341 319 303 360 0 221 250 266 241 231 226 211 228 267 279 250 234 240 248 245 241 246 239 221 232 246 257 257 216 89 44 22 26 11 28 44 40 44 49 30 21 15 12 16 21 23
233 250 195 166 160 155 167 197 194 208 222 222 258 302 84 10 301 117 163 207 246 256 249 299 306 328 314 283 285 314 280 242 240 238 119 93 57 3 5 347 325 321 338 316 19 18 344 293 270 260 246 256 254 244 273 316 312 288 268 292 320 317 302 274 271 269 252 256 273 276 110 104 81 88 90 35 31 42 33 33 41 30 21 14 10 14 22 26
219 245 205 172 172 177 196 215 197 217 228 221 291 49 89 220 233 151 191 182 203 254 198 248 281 279 278 298 324 307 292 264 268 284 83 88 84 11 354 349 330 339 346 284 12 12 323 282 266 246 242 294 283 277 297 307 302 301 331 12 20 5 356 333 311 331 317 287 309 348 82 97 51 85 107 87 53 45 36 37 40 32 27 14 10 16 19 19
202 270 205 174 179 187 207 220 213 214 212 216 231 173 87 262 228 256 248 185 194 229 191 224 270 284 276 303 285 278 291 283 279 44 84 81 93 251 330 15 334 19 25 316 314 4 292 274 272 253 249 318 286 266 272 282 289 308 357 9 19 17 10 346 328 15 1 318 1 85 98 75 319 352 100 94 78 58 37 40 42 35 33 23 17 23 21 18
318 243 196 174 178 181 189 252 261 227 197 203 204 190 188 186 168 320 331 147 207 324 36 260 294 109 271 270 235 265 286 273 284 9 114 124 140 190 188 49 82 110 112 289 335 31 227 282 294 259 249 264 254 255 276 294 305 310 326 5 22 29 30 17 320 51 33 322 329 66 111 121 203 150 95 90 85 70 40 36 42 35 30 28 27 27 23 21
22 181 180 160 176 198 212 243 254 234 185 176 184 204 196 154 133 259 314 11 71 359 1 272 265 181 253 292 287 269 269 231 222 250 213 143 122 138 158 132 102 99 123 179 231 242 210 184 146 221 268 280 140 47 303 258 281 301 300 339 18 29 43 53 35 59 52 327 322 55 116 138 157 99 79 73 71 67 43 33 35 27 25 27 29 31 27 23
221 219 193 163 178 205 214 227 228 196 167 173 181 218 194 151 134 175 224 15 90 290 276 236 278 258 212 282 298 300 295 264 216 219 239 223 169 149 209 228 129 122 146 204 228 225 235 245 191 204 269 287 152 154 277 273 264 264 263 290 13 25 33 48 51 41 41 344 333 46 114 125 94 57 56 58 60 59 44 35 32 22 18 22 30 33 30 26
201 250 204 177 196 194 194 219 196 133 172 184 170 253 187 158 152 145 156 237 205 254 268 199 264 269 205 219 216 224 293 294 275 257 328 325 277 117 1 320 107 137 189 214 177 54 270 249 196 232 271 300 287 197 232 279 270 263 274 358 29 38 42 51 54 42 45 111 115 111 118 104 76 53 46 45 49 56 51 42 36 31 23 24 31 31 29 27
240 283 188 165 246 184 157 182 160 142 167 155 140 208 190 159 162 143 145 252 196 182 283 242 268 273 218 225 265 211 264 306 330 353 25 15 338 347 10 324 351 4 292 235 108 20 304 240 80 282 263 269 287 269 166 252 264 332 48 43 38 49 61 64 48 40 62 95 107 119 106 85 69 63 54 47 49 56 55 47 41 38 32 29 33 31 29 29
235 285 142 164 228 157 128 147 163 151 129 80 145 174 142 154 175 154 150 160 141 201 260 261 268 281 288 66 294 327 47 39 355 350 18 18 312 292 306 289 335 352 332 308 94 22 305 316 38 317 289 254 183 111 259 257 78 64 51 44 40 43 54 55 38 30 43 50 57 138 117 90 74 77 65 54 53 51 51 49 44 41 36 32 32 32 33 31
264 258 263 250 162 165 144 142 167 160 141 153 179 121 134 170 165 138 169 307 38 199 255 325 305 281 299 9 346 31 94 129 221 301 324 314 290 285 303 202 198 232 319 296 111 83 309 314 354 295 293 272 189 162 247 225 97 76 44 35 39 41 49 54 42 28 23 10 342 137 115 97 96 91 72 56 52 48 46 43 41 42 39 35 33 33 34 33
296 268 262 268 142 192 201 161 172 169 123 90 106 125 167 137 111 101 69 328 339 6 359 16 19 332 294 90 358 20 54 51 312 320 303 284 285 279 276 262 239 240 270 267 154 115 241 293 302 287 281 280 319 352 272 227 139 86 35 30 36 40 54 63 51 30 20 13 0 40 85 91 97 89 76 63 54 50 46 36 32 39 39 36 37 35 35 36
Height
798 796 796 795 794 793 792 792 792 792 791 791 790 789 788 787 785 784 783 782 781 780 779 778 777 776 775 774 773 771 770 767 766 765 762 757 755 756 756 756 757 758 759 760 760 761 760 760 759 757 757 756 756 754 750 746 745 750 759 768 766 757 746 734 735 736 732 737 738 735 735 739 739 731 724 721 724 725 724 730 738 739 739 740 742 744 746 749
797 796 795 794 793 792 792 791 791 791 791 790 790 789 788 787 786 784 783 782 781 780 779 777 777 776 775 774 773 771 770 767 766 761 755 754 754 755 755 755 756 757 757 759 759 757 758 758 756 755 756 756 753 751 750 745 746 755 759 764 761 748 736 728 732 732 732 741 739 736 736 738 739 733 727 730 731 725 728 739 743 745 746 744 744 746 748 750
797 796 795 794 793 792 792 791 791 791 790 790 789 788 787 786 785 784 783 782 780 779 778 777 776 775 775 774 772 772 770 767 762 754 748 751 753 753 754 754 755 756 756 757 757 755 755 753 752 754 755 756 751 748 750 746 747 753 755 762 752 736 733 728 729 731 733 737 739 738 736 738 737 729 730 734 734 727 729 739 744 749 750 747 748 748 749 751
797 796 795 794 793 792 791 790 790 790 790 789 789 788 787 786 785 784 782 781 780 779 777 777 776 775 774 773 773 772 771 767 757 747 746 749 751 752 752 753 754 755 756 756 756 755 753 750 749 751 755 756 749 746 749 746 746 749 751 757 743 730 736 732 729 733 734 735 739 740 739 741 733 728 733 735 738 733 728 732 737 744 746 746 749 748 749 751
797 796 795 794 793 792 791 790 790 789 789 789 788 788 787 786 784 783 782 780 779 778 777 776 776 775 774 773 773 772 773 768 752 745 748 749 750 751 751 751 753 754 755 757 756 754 752 749 748 751 755 756 750 748 749 742 741 747 746 746 737 733 739 733 730 735 736 737 740 741 741 739 732 733 735 735 740 735 729 732 732 737 740 742 745 747 749 751
797 796 795 793 792 792 790 789 789 789 789 788 788 787 786 785 784 783 781 780 779 778 777 776 775 775 774 773 773 774 774 764 748 746 749 748 750 750 750 751 752 754 756 757 755 752 751 749 750 755 756 755 752 748 747 739 739 749 746 739 736 735 738 733 731 735 736 741 743 741 738 734 737 740 734 733 735 727 724 728 731 735 738 740 743 746 750 752
797 796 794 793 792 791 790 789 788 788 788 788 787 786 786 785 783 782 780 780 778 777 776 775 775 775 773 773 772 773 772 759 745 748 748 748 750 748 750 751 752 755 756 756 753 751 750 751 753 754 755 755 751 746 743 738 737 747 748 740 735 732 734 732 731 735 737 741 741 737 737 738 744 743 733 732 729 721 720 724 729 735 737 740 744 747 750 752
796 795 794 792 791 790 790 788 787 787 787 787 787 785 785 784 783 781 780 779 778 777 776 775 775 775 774 774 771 769 765 754 746 748 747 748 750 749 751 751 753 755 755 755 751 749 749 752 752 750 754 752 746 743 739 740 741 745 746 740 735 732 732 731 732 735 737 738 737 737 741 741 740 738 734 733 728 719 718 724 729 733 738 742 745 748 750 752
795 795 793 792 791 790 789 788 786 786 786 786 786 785 784 783 782 781 779 778 777 776 775 774 775 774 775 775 773 768 755 746 745 747 747 748 749 750 751 751 754 754 754 753 749 748 749 751 749 746 750 746 741 740 737 744 747 741 740 738 736 735 732 731 734 735 736 736 735 739 743 739 733 734 737 732 726 719 717 725 729 732 739 741 745 749 750 752
795 794 793 791 790 789 788 787 786 785 785 785 785 784 783 782 781 780 778 777 776 775 774 775 774 774 776 774 773 767 749 743 747 746 747 748 748 750 751 752 754 753 752 750 747 747 746 746 743 739 743 743 742 741 738 743 742 734 736 736 735 735 731 731 734 733 735 734 735 740 742 737 730 735 742 731 720 717 719 726 727 731 738 740 745 747 749 751
794 793 792 790 789 789 787 786 785 784 785 784 783 783 781 780 780 778 777 776 774 774 773 774 774 774 774 772 771 762 746 744 747 746 748 748 748 750 751 751 752 752 750 747 746 745 744 742 738 739 745 745 743 743 740 737 734 733 736 738 736 736 734 732 734 733 735 736 734 736 740 737 732 737 738 727 717 716 722 727 728 732 739 742 745 747 748 750
793 792 791 789 788 787 787 786 784 784 783 783 782 781 780 779 778 777 775 774 773 773 773 773 774 774 773 771 765 753 745 745 746 746 749 748 749 750 749 751 751 751 748 745 745 744 744 741 740 745 746 744 746 746 740 732 733 734 736 744 743 738 738 735 733 733 735 738 730 732 745 744 738 737 730 721 716 714 721 728 731 737 743 746 747 748 749 749
792 791 790 789 787 786 786 785 784 783 782 782 780 779 778 777 776 775 773 772 771 771 772 772 772 773 775 767 751 744 745 745 745 746 747 747 748 749 749 750 749 749 747 744 744 744 744 743 744 747 743 745 747 742 736 731 734 738 737 745 747 745 742 731 728 730 732 734 725 734 757 752 736 730 724 718 714 714 722 729 735 741 744 746 747 749 751 750
791 789 788 787 786 786 785 784 783 782 781 780 778 777 776 775 774 773 772 771 770 771 770 771 772 773 774 761 743 742 745 744 746 746 746 747 746 747 748 748 748 748 747 746 745 744 745 744 745 747 744 745 741 736 739 738 738 741 743 744 747 753 744 723 720 728 733 730 722 738 761 752 731 722 718 715 712 715 724 727 734 740 742 744 746 749 751 750
789 788 787 786 785 784 783 783 781 780 779 778 776 775 774 773 772 770 770 769 769 770 769 770 771 770 768 755 741 742 744 744 745 744 745 745 744 745 746 747 748 747 748 748 747 747 747 746 748 751 748 742 740 745 748 745 741 742 751 752 746 749 740 718 714 724 732 728 724 741 758 748 730 715 708 709 709 714 724 726 730 736 739 742 745 747 748 749
788 787 785 784 784 783 782 781 780 779 777 776 774 773 772 771 770 769 769 768 768 768 769 770 768 768 765 751 740 741 743 742 742 742 744 743 742 743 745 746 747 747 748 748 747 747 747 748 748 749 748 744 746 752 752 752 747 741 749 755 745 741 737 723 718 720 725 728 730 740 750 743 728 710 701 703 708 715 725 726 726 733 736 738 743 745 747 751
786 785 784 783 783 782 781 780 779 777 775 774 772 771 770 770 769 769 768 768 768 767 768 766 763 766 759 745 741 741 738 739 740 741 741 741 742 741 743 745 746 747 747 747 748 748 747 749 750 749 748 748 746 749 759 765 757 744 744 748 742 735 733 728 725 721 718 727 734 736 742 739 726 713 707 708 713 720 725 726 726 730 733 733 739 744 748 752
785 784 783 782 781 781 780 779 777 775 774 772 770 769 769 768 767 767 767 767 768 769 769 764 763 767 755 739 738 735 731 735 737 738 739 740 741 740 741 743 744 746 748 749 749 748 749 748 750 752 751 750 747 748 763 764 752 744 741 743 742 735 731 727 725 723 719 728 736 736 740 737 726 717 713 713 716 722 724 724 724 725 731 733 735 741 745 748
784 783 782 781 780 780 779 777 776 774 772 770 769 768 767 766 766 766 767 766 766 765 762 757 757 757 743 732 731 727 727 733 735 736 738 738 740 740 739 742 742 745 751 754 751 748 749 750 753 757 755 751 748 745 750 747 737 734 730 732 735 733 732 724 719 720 720 731 738 736 737 735 728 722 716 713 714 721 723 722 722 722 730 736 736 740 742 744
783 782 781 780 779 778 777 776 775 773 772 770 768 768 765 763 760 761 763 763 758 750 743 743 745 740 732 727 727 727 729 732 733 734 736 737 739 740 740 741 742 746 751 751 750 745 746 755 758 756 752 745 742 740 738 735 730 729 729 731 728 728 729 720 718 719 716 729 737 733 735 734 730 725 718 714 714 717 720 722 723 721 724 730 735 739 740 741
782 781 780 779 778 777 776 775 773 772 771 770 770 769 761 754 754 756 757 754 747 741 738 736 735 734 728 724 723 726 731 734 733 732 734 736 737 742 742 742 746 750 749 745 744 741 745 757 754 746 742 736 734 734 734 735 732 732 738 739 734 729 726 717 717 719 717 731 737 732 737 736 730 727 720 717 718 719 716 719 724 722 719 721 727 732 735 738
781 780 779 778 777 776 775 774 772 771 770 770 770 766 757 752 754 754 753 750 740 735 736 732 730 729 725 723 723 725 730 735 735 731 731 734 737 741 741 742 747 748 743 742 742 745 752 755 745 736 732 731 730 728 731 736 734 737 742 745 743 734 729 723 717 716 719 732 738 735 739 737 728 724 720 718 719 719 714 713 718 721 719 719 722 723 725 733
781 779 778 777 775 775 774 772 771 769 768 768 766 762 756 753 754 753 753 752 740 729 728 729 728 728 726 726 725 727 731 733 734 731 728 733 736 736 738 741 745 742 740 742 743 750 756 747 733 729 729 730 731 730 734 739 739 742 745 749 748 736 736 738 726 716 715 723 733 738 741 738 729 723 719 717 717 716 714 711 711 715 718 717 718 719 718 725
779 778 778 776 775 774 772 770 769 766 765 764 762 758 755 755 755 754 753 750 741 726 720 721 721 723 724 724 722 728 732 729 728 726 725 731 733 733 735 736 740 741 738 736 737 743 744 730 721 724 726 727 732 735 740 747 747 745 744 747 746 736 736 737 728 719 716 720 727 739 750 745 734 732 727 718 716 716 714 712 709 710 713 713 713 715 715 717
778 778 776 774 774 772 770 769 765 763 762 761 760 755 755 757 755 756 756 751 741 725 717 717 718 719 718 720 723 724 728 728 723 719 720 727 729 731 733 730 735 741 736 732 734 737 734 722 718 724 725 727 736 741 741 747 752 748 741 740 740 736 734 732 728 727 732 735 727 736 762 757 734 731 729 719 717 716 713 713 712 709 709 712 713 714 714 713
777 777 775 774 773 770 770 767 762 762 761 758 756 754 756 757 755 757 757 753 740 723 720 721 720 720 718 721 722 722 731 730 719 714 717 723 723 724 731 729 730 735 730 727 729 731 729 720 718 725 729 733 740 743 739 741 751 752 738 730 733 735 735 734 733 736 743 742 727 726 752 758 737 726 722 716 714 711 708 710 711 709 708 710 711 711 711 711
777 775 774 773 772 771 770 764 762 762 758 756 755 755 757 755 756 757 757 760 744 720 719 722 718 719 718 718 719 726 736 725 715 716 714 720 722 720 729 730 728 731 724 725 733 729 723 722 722 726 731 735 741 743 736 734 747 749 730 723 727 729 733 735 735 741 741 739 734 727 736 753 749 732 720 715 714 709 708 710 708 708 709 709 711 710 710 712
776 774 773 772 771 772 771 766 764 761 757 756 755 757 757 755 758 757 761 765 740 711 712 718 716 715 714 715 717 723 725 715 719 722 711 716 722 721 730 729 725 728 720 727 740 727 716 723 727 728 735 738 738 737 729 729 741 738 724 722 722 724 732 733 735 741 737 742 751 738 732 752 752 732 719 718 718 715 712 712 711 710 712 714 716 715 714 715
774 773 772 771 769 769 769 768 765 761 758 758 757 758 756 757 758 756 762 759 728 706 710 715 716 716 714 717 719 719 717 715 720 717 709 716 720 721 728 725 722 725 719 724 732 722 714 718 719 724 735 737 733 728 722 726 733 728 723 724 723 728 734 735 739 739 738 751 759 743 735 751 751 730 721 722 723 721 714 714 718 717 718 721 720 719 717 717
773 772 771 770 769 768 768 767 762 759 759 759 759 758 756 759 758 760 767 751 720 708 710 714 717 716 716 721 722 720 719 718 715 712 714 719 719 721 722 718 719 722 719 720 724 719 713 712 715 719 724 727 726 723 720 721 724 724 726 728 731 735 736 740 740 739 752 762 753 739 732 744 753 736 723 726 727 724 720 722 727 723 723 724 723 722 720 719
772 771 770 770 769 768 768 764 759 759 759 759 759 758 758 759 755 761 758 730 713 711 709 714 715 711 716 721 721 720 720 717 716 718 722 722 723 726 726 725 726 728 727 725 725 723 718 718 721 719 717 720 724 724 720 718 722 727 731 736 744 746 744 748 746 747 768 770 748 734 726 736 754 741 722 721 721 723 727 731 734 731 729 728 725 725 723 723
770 769 769 768 767 767 766 760 757 758 759 759 759 758 760 760 758 755 737 715 719 719 706 708 711 709 714 716 714 716 718 717 717 721 724 725 728 728 731 733 731 740 745 734 729 729 726 721 720 720 719 722 728 730 725 718 720 730 734 741 757 761 759 763 761 759 766 760 740 729 727 736 745 735 723 722 722 727 731 733 734 735 734 734 731 730 729 729
768 766 765 765 765 764 761 759 758 759 759 760 759 756 759 763 755 739 722 716 721 713 699 700 704 706 710 712 711 709 713 715 714 719 720 722 728 727 727 726 723 735 743 734 732 735 734 725 717 720 723 721 727 733 734 726 725 735 737 743 759 767 771 773 768 763 761 753 735 725 735 743 740 736 732 728 729 731 733 736 738 737 737 739 737 736 736 735
765 764 762 761 761 759 757 759 759 760 760 760 759 757 761 764 745 723 717 712 708 706 702 700 704 708 709 710 706 702 711 714 709 716 720 720 729 730 727 725 720 723 729 733 733 733 744 741 723 717 718 719 724 727 727 723 724 730 729 734 746 752 761 766 763 765 766 760 746 738 746 747 746 747 737 730 734 735 737 740 741 741 740 740 742 742 743 741
761 760 758 757 757 755 754 758 758 760 761 758 758 757 760 757 734 718 714 704 701 707 707 704 709 715 714 710 703 696 705 713 707 711 718 720 726 727 723 723 720 718 725 736 734 728 742 742 719 710 710 712 721 721 717 720 725 722 719 731 741 736 739 748 750 752 757 764 757 747 745 738 738 742 732 732 742 740 742 745 744 749 749 748 752 750 750 748
758 757 756 755 753 752 753 756 757 759 759 757 758 755 748 737 721 715 712 705 706 709 708 712 715 717 718 713 707 701 701 710 709 709 715 716 718 718 716 715 715 716 720 727 729 730 742 738 716 710 711 709 715 717 714 723 730 724 723 733 730 718 722 741 750 744 749 768 761 746 746 741 740 746 741 742 749 744 746 750 752 757 758 759 762 761 761 759
758 756 754 752 750 750 752 754 756 758 757 755 756 749 733 718 710 712 713 711 711 710 714 722 717 715 718 711 709 707 705 713 715 714 717 715 712 711 709 707 706 710 713 717 721 721 730 737 721 711 716 712 708 711 712 714 720 727 733 728 719 716 719 732 751 754 758 768 756 741 746 746 749 761 759 753 754 754 753 754 757 759 761 764 766 767 768 765
760 757 752 748 747 748 750 753 755 755 755 754 753 745 729 716 709 711 715 714 714 714 720 724 714 710 710 707 707 704 705 718 723 722 722 718 716 713 708 707 703 701 704 709 719 718 722 739 730 711 714 713 706 713 720 713 710 719 724 717 721 739 740 736 750 762 765 767 759 744 740 749 761 769 769 764 762 763 762 760 760 761 762 763 764 765 763 760
760 758 752 745 745 748 749 753 753 753 754 752 749 740 727 718 713 714 718 718 717 720 722 719 713 712 709 705 705 701 705 717 721 725 727 721 724 723 714 713 712 708 706 707 716 719 722 743 742 716 708 714 715 722 730 726 715 714 716 714 719 733 739 739 743 750 756 762 762 750 745 764 778 770 767 769 764 763 766 765 764 764 764 763 763 764 761 759
758 757 752 744 744 748 749 751 752 751 751 747 739 729 719 716 715 717 720 720 719 721 722 717 714 717 715 708 705 704 707 712 714 723 727 724 729 729 719 719 721 719 716 712 714 717 721 740 748 727 713 721 728 727 727 726 721 721 726 727 725 723 727 734 736 737 745 754 760 756 758 775 781 771 770 771 765 764 765 767 770 769 767 766 765 765 763 762
753 755 751 743 745 747 748 751 751 747 746 740 730 720 717 717 717 719 722 721 721 719 719 720 716 717 718 712 709 710 712 714 712 716 725 730 736 735 726 726 727 725 727 726 724 729 733 739 747 743 735 736 732 720 716 718 719 722 726 726 727 726 729 741 745 737 734 742 750 755 768 783 782 776 778 775 770 769 767 768 772 772 771 771 768 766 765 765
753 755 748 742 746 747 747 749 745 741 739 734 725 718 721 723 720 721 723 722 723 719 718 722 721 720 721 717 714 715 715 716 714 716 728 735 739 740 733 730 730 729 736 739 735 737 740 742 749 751 744 736 725 714 715 721 720 720 722 725 731 734 739 753 759 746 736 737 739 745 766 785 782 775 778 778 775 773 773 775 775 775 775 774 771 769 767 768
751 752 746 743 746 745 747 747 742 739 735 728 722 719 723 725 723 724 723 722 724 722 722 725 723 724 724 721 722 722 720 722 718 720 734 740 741 741 734 731 733 734 740 745 742 739 741 747 753 751 743 737 727 718 718 721 723 729 733 735 740 745 750 758 758 754 753 750 748 756 774 786 780 772 772 776 777 777 778 780 780 780 779 777 775 773 771 772
750 751 746 745 746 746 751 750 742 738 733 728 727 726 726 725 724 725 724 722 723 723 726 727 723 725 725 722 727 725 723 730 727 722 736 747 743 738 733 732 736 741 746 747 744 743 749 757 759 757 761 763 753 741 735 731 732 740 744 742 743 747 752 755 753 758 766 761 756 768 783 787 781 774 772 775 779 783 783 782 783 783 782 781 779 777 776 777
753 753 745 743 746 748 752 750 742 737 733 732 733 732 731 729 727 727 725 723 721 721 727 727 723 727 727 723 728 726 723 732 733 728 736 744 740 735 735 734 736 741 745 745 742 742 752 763 764 767 777 779 771 763 760 757 751 747 745 744 748 753 756 761 763 769 779 775 767 772 784 790 785 776 776 779 782 788 789 786 786 785 784 784 782 782 782 782
754 753 744 743 746 746 747 745 740 736 734 736 739 734 732 733 731 729 728 727 726 725 729 729 724 727 730 729 732 733 727 727 731 731 733 737 739 737 734 734 737 741 743 744 742 741 750 758 760 771 778 773 771 769 765 765 766 761 754 749 751 755 757 763 769 776 784 786 780 776 778 787 789 783 783 786 787 792 795 792 791 790 788 787 785 786 787 786
756 751 742 742 745 743 744 739 732 731 731 734 739 733 730 734 735 732 732 732 731 729 730 731 728 730 736 737 739 741 735 727 726 729 730 732 734 734 733 732 736 742 745 744 740 742 753 757 755 764 766 758 760 764 759 759 762 759 756 754 754 757 760 768 775 780 785 789 788 785 782 788 794 792 792 793 793 797 799 798 797 795 792 789 788 790 791 791
753 746 734 734 738 738 740 735 727 729 731 730 734 734 732 736 738 738 738 733 730 731 734 737 735 732 732 734 739 745 744 737 732 731 733 733 732 735 740 737 736 741 743 740 738 742 753 757 755 757 757 752 752 754 758 764 758 749 752 758 761 763 766 774 778 777 781 787 790 791 792 796 799 800 800 799 798 801 802 801 800 798 796 794 793 794 794 794
748 744 733 732 734 732 731 730 727 731 733 731 735 736 735 738 739 738 738 736 735 734 736 742 741 732 727 728 734 742 746 749 749 745 743 744 743 745 749 747 742 740 739 739 743 748 754 756 755 754 756 755 752 751 757 763 759 754 760 766 768 770 773 777 778 776 779 787 789 789 794 801 803 804 805 803 802 803 804 804 803 802 801 800 799 799 799 798
749 747 738 733 734 730 727 728 729 732 734 735 736 734 733 738 740 735 733 738 743 741 737 741 741 733 729 730 735 743 746 751 757 754 749 752 751 748 750 753 750 747 745 745 749 756 759 757 755 757 760 758 754 754 756 758 764 772 776 773 772 776 780 782 784 784 785 790 791 787 793 804 806 805 807 807 806 807 807 808 808 807 807 806 805 805 804 803
749 745 738 735 736 732 728 729 729 732 736 737 737 736 734 735 735 735 735 734 739 742 738 738 741 737 734 736 740 745 746 747 751 750 747 749 750 745 746 750 750 751 752 749 752 762 765 759 756 762 770 765 757 758 760 758 767 783 788 785 783 783 787 791 793 793 793 795 795 791 795 804 807 808 810 812 813 814 813 812 811 811 811 810 810 809 808 808
747 742 734 733 735 734 730 729 728 732 736 735 735 737 736 734 731 736 744 740 736 738 738 739 744 743 742 746 747 746 745 746 746 745 743 743 742 740 741 741 741 745 749 747 750 759 763 761 759 763 772 770 760 764 770 764 768 787 796 795 791 789 791 796 799 800 798 797 799 800 801 804 806 809 814 818 819 819 819 818 816 815 813 813 813 813 812 812